Andrews, TX

3:19 PM CST on December 06, 2019 (GMT -0600)
Andrews

Weather History for KE11 - October, 2019

Change the Weather History Date:

Sunday, October 6, 2019

  Actual Average (WUND) Record (WUND)
Temperature  
Mean Temperature 74 °F -  
Max Temperature 89 °F - - (-1)
Min Temperature 59 °F - - (-1)
Cooling Degree Days 9    
Growing Degree Days 24 (Base 50)    
Moisture  
Dew Point 52 °F    
Average Humidity 51    
Maximum Humidity 82    
Minimum Humidity 20    
Precipitation  
Precipitation 0.00 in - - ()
Sea Level Pressure  
Sea Level Pressure 30.09 in    
Wind  
Wind Speed 4 mph ()    
Max Wind Speed 23 mph    
Max Gust Speed 38 mph    
Visibility 10.0 miles    
Events      
Averages and records for this station are not official NWS values.
T = Trace of Precipitation, MM = Missing Value Source: Averaged Metar Reports

Daily Weather History Graph

Daily Weather History Graph

Search for Another Location

Airport or City:

Astronomy

Oct. 06, 2019 Rise Set
Actual Time 7:47 AM CDT 7:28 PM CDT
Civil Twilight 7:22 AM CDT 7:53 PM CDT
Nautical Twilight 6:54 AM CDT 8:21 PM CDT
Astronomical Twilight 6:25 AM CDT 8:49 PM CDT
Moon 3:44 PM CDT 1:13 AM CDT
Length of Visible Light 12h 30m
Length of Day
11h 41m
First Quarter, 60% of the Moon is Illuminated
Oct 6
First Quarter
Oct 13
Full
Oct 21
Last Quarter
Oct 27
New
Nov 4
First Quarter

Hourly Weather History & Observations

Time (CDT) Temp. Heat Index Dew Point Humidity Pressure Visibility Wind Dir Wind Speed Gust Speed Precip Events Conditions
12:15 AM 67.5 °F - 53.6 °F 61% 30.03 in 10.0 mi Calm Calm - N/A   Clear
12:35 AM 70.7 °F - 50.4 °F 48% 30.03 in 10.0 mi NNW 3.5 mph - N/A   Clear
12:55 AM 68.5 °F - 50.9 °F 53% 30.03 in 10.0 mi Calm Calm - N/A   Clear
1:15 AM 66.9 °F - 51.3 °F 57% 30.03 in 10.0 mi North 3.5 mph - N/A   Clear
1:35 AM 67.6 °F - 50.9 °F 55% 30.03 in 10.0 mi Calm Calm - N/A   Clear
1:55 AM 66.9 °F - 53.4 °F 62% 30.03 in 10.0 mi Calm Calm - N/A   Clear
2:15 AM 66.2 °F - 54.0 °F 65% 30.03 in 10.0 mi West 3.5 mph - N/A   Scattered Clouds
2:35 AM 65.3 °F - 54.0 °F 67% 30.03 in 10.0 mi WSW 3.5 mph - N/A   Scattered Clouds
2:55 AM 65.8 °F - 54.7 °F 67% 30.03 in 10.0 mi West 3.5 mph - N/A   Mostly Cloudy
3:15 AM 65.1 °F - 55.4 °F 71% 30.03 in 10.0 mi West 3.5 mph - N/A   Mostly Cloudy
3:35 AM 64.4 °F - 55.6 °F 73% 30.02 in 10.0 mi NW 3.5 mph - N/A   Scattered Clouds
4:15 AM 64.2 °F - 54.5 °F 71% 30.04 in 10.0 mi South 9.2 mph - N/A   Scattered Clouds
4:35 AM 65.7 °F - 51.6 °F 60% 30.03 in 10.0 mi SSW 4.6 mph - N/A   Scattered Clouds
4:55 AM 65.3 °F - 51.3 °F 60% 30.03 in 10.0 mi SSW 3.5 mph - N/A   Scattered Clouds
5:15 AM 65.3 °F - 51.8 °F 62% 30.03 in 10.0 mi Calm Calm - N/A   Scattered Clouds
5:35 AM 64.4 °F - 52.2 °F 64% 30.03 in 10.0 mi Calm Calm - N/A   Scattered Clouds
5:55 AM 59.9 °F - 54.3 °F 82% 30.04 in 10.0 mi NE 3.5 mph - N/A   Mostly Cloudy
6:15 AM 59.9 °F - 53.6 °F 80% 30.05 in 10.0 mi Calm Calm - N/A   Scattered Clouds
6:35 AM 60.8 °F - 52.9 °F 75% 30.05 in 10.0 mi Calm Calm - N/A   Clear
6:55 AM 60.3 °F - 53.8 °F 79% 30.05 in 10.0 mi Calm Calm - N/A   Clear
7:15 AM 61.2 °F - 53.4 °F 76% 30.05 in 10.0 mi East 3.5 mph - N/A   Clear
7:35 AM 60.4 °F - 53.1 °F 77% 30.06 in 10.0 mi Calm Calm - N/A   Clear
7:55 AM 60.3 °F - 53.6 °F 79% 30.07 in 10.0 mi Calm Calm - N/A   Clear
8:15 AM 61.2 °F - 53.8 °F 77% 30.07 in 10.0 mi Calm Calm - N/A   Clear
8:35 AM 63.1 °F - 54.7 °F 74% 30.07 in 10.0 mi Calm Calm - N/A   Clear
8:55 AM 66.2 °F - 53.6 °F 64% 30.08 in 10.0 mi Calm Calm - N/A   Clear
9:15 AM 67.6 °F - 53.4 °F 60% 30.08 in 10.0 mi North 3.5 mph - N/A   Clear
9:35 AM 69.3 °F - 53.6 °F 57% 30.09 in 10.0 mi Calm Calm - N/A   Clear
9:55 AM 71.1 °F - 54.5 °F 56% 30.10 in 10.0 mi Calm Calm - N/A   Clear
10:15 AM 72.9 °F - 55.2 °F 54% 30.10 in 10.0 mi Calm Calm - N/A   Clear
10:35 AM 75.4 °F - 57.0 °F 53% 30.10 in 10.0 mi WSW 5.8 mph - N/A   Clear
10:55 AM 77.0 °F - 57.9 °F 52% 30.10 in 10.0 mi WSW 3.5 mph - N/A   Clear
11:15 AM 79.0 °F - 57.7 °F 48% 30.10 in 10.0 mi Calm Calm - N/A   Clear
11:35 AM 81.0 °F 81.1 °F 57.6 °F 45% 30.10 in 10.0 mi Calm Calm - N/A   Clear
11:55 AM 82.0 °F 81.6 °F 55.9 °F 41% 30.10 in 10.0 mi Calm Calm - N/A   Clear
12:15 PM 84.2 °F 83.2 °F 56.1 °F 38% 30.10 in 10.0 mi WSW 4.6 mph - N/A   Clear
12:35 PM 85.3 °F 83.6 °F 54.0 °F 34% 30.09 in 10.0 mi WSW 4.6 mph - N/A   Clear
12:55 PM 87.1 °F - 49.5 °F 27% 30.09 in 10.0 mi WSW 5.8 mph - N/A   Clear
1:15 PM 87.3 °F - 52.3 °F 30% 30.08 in 10.0 mi NNW 3.5 mph - N/A   Clear
1:35 PM 88.2 °F - 49.3 °F 26% 30.08 in 10.0 mi West 3.5 mph - N/A   Clear
1:55 PM 88.9 °F - 49.6 °F 26% 30.07 in 10.0 mi SW 8.1 mph - N/A   Clear
2:15 PM 89.6 °F - 48.9 °F 25% 30.07 in 10.0 mi SW 11.5 mph 16.1 mph N/A   Clear
2:35 PM 89.4 °F - 48.0 °F 24% 30.06 in 10.0 mi SSW 5.8 mph - N/A   Clear
2:55 PM 89.4 °F - 47.3 °F 23% 30.06 in 10.0 mi SW 5.8 mph - N/A   Clear
3:15 PM 89.2 °F - 46.0 °F 22% 30.05 in 10.0 mi Calm Calm - N/A   Clear
3:35 PM 89.6 °F - 48.6 °F 24% 30.05 in 10.0 mi West 6.9 mph - N/A   Clear
3:55 PM 89.8 °F - 46.2 °F 22% 30.04 in 10.0 mi WNW 4.6 mph - N/A   Clear
4:15 PM 89.6 °F - 44.1 °F 20% 30.04 in 10.0 mi Calm Calm - N/A   Clear
4:35 PM 89.4 °F - 47.1 °F 23% 30.04 in 10.0 mi Calm Calm - N/A   Clear
4:55 PM 89.4 °F - 47.8 °F 24% 30.04 in 10.0 mi NNW 4.6 mph - N/A   Clear
5:15 PM 89.1 °F - 46.6 °F 23% 30.04 in 10.0 mi NNW 4.6 mph - N/A   Clear
5:35 PM 88.7 °F - 46.0 °F 23% 30.04 in 10.0 mi Calm Calm - N/A   Clear
5:55 PM 88.0 °F - 45.9 °F 23% 30.04 in 10.0 mi North 4.6 mph - N/A   Clear
6:15 PM 87.8 °F - 47.1 °F 24% 30.04 in 10.0 mi NNW 5.8 mph - N/A   Clear
6:35 PM 85.5 °F - 50.4 °F 30% 30.04 in 10.0 mi North 6.9 mph - N/A   Clear
6:55 PM 81.5 °F - 50.7 °F 34% 30.06 in 10.0 mi North 17.3 mph 26.5 mph N/A   Clear
7:15 PM 77.9 °F - 54.5 °F 44% 30.07 in 10.0 mi NNE 21.9 mph 27.6 mph N/A   Clear
7:35 PM 75.4 °F - 54.5 °F 48% 30.10 in 10.0 mi NE 23.0 mph 27.6 mph N/A   Clear
7:55 PM 73.4 °F - 53.6 °F 50% 30.12 in 10.0 mi NE 15.0 mph 26.5 mph N/A   Clear
8:15 PM 72.1 °F - 52.5 °F 50% 30.14 in 10.0 mi NE 17.3 mph 26.5 mph N/A   Clear
8:35 PM 71.1 °F - 52.9 °F 53% 30.15 in 10.0 mi NE 18.4 mph 25.3 mph N/A   Clear
8:55 PM 70.3 °F - 53.2 °F 55% 30.18 in 10.0 mi NE 13.8 mph 23.0 mph N/A   Light Drizzle
9:15 PM 69.8 °F - 53.4 °F 56% 30.19 in 10.0 mi NE 20.7 mph 26.5 mph N/A   Clear
9:35 PM 68.0 °F - 53.8 °F 60% 30.21 in 10.0 mi NE 23.0 mph 38.0 mph N/A   Clear
9:55 PM 66.7 °F - 53.1 °F 61% 30.23 in 10.0 mi ENE 23.0 mph 33.4 mph N/A   Scattered Clouds
10:15 PM 66.6 °F - 52.2 °F 60% 30.25 in 10.0 mi ENE 19.6 mph 34.5 mph N/A   Overcast
10:35 PM 64.9 °F - 49.8 °F 58% 30.27 in 10.0 mi NE 21.9 mph 31.1 mph N/A   Overcast
10:55 PM 62.6 °F - 48.2 °F 59% 30.28 in 10.0 mi NE 18.4 mph 27.6 mph N/A   Mostly Cloudy
11:15 PM 61.5 °F - 46.0 °F 57% 30.28 in 10.0 mi NE 15.0 mph 26.5 mph N/A   Clear
11:35 PM 60.8 °F - 44.6 °F 55% 30.28 in 10.0 mi NE 17.3 mph 27.6 mph N/A   Clear
11:55 PM 60.1 °F - 44.1 °F 55% 30.29 in 10.0 mi NE 15.0 mph 19.6 mph N/A   Clear